Fitchburg, MA

6:27 AM EST on December 15, 2019 (GMT -0500)
Fitchburg Municipal

Weather History for KFIT - November, 2019

Change the Weather History Date:

Friday, November 15, 2019

  Actual Average (WUND) Record (WUND)
Temperature  
Mean Temperature 38 °F -  
Max Temperature 48 °F - - (-1)
Min Temperature 27 °F - - (-1)
Degree Days  
Heating Degree Days 28    
Moisture  
Dew Point 22 °F    
Average Humidity 53    
Maximum Humidity 78    
Minimum Humidity 33    
Precipitation  
Precipitation 0.00 in - - ()
Sea Level Pressure  
Sea Level Pressure 30.14 in    
Wind  
Wind Speed 6 mph (West)    
Max Wind Speed 17 mph    
Max Gust Speed 26 mph    
Visibility 10 miles    
Events      
Averages and records for this station are not official NWS values.
T = Trace of Precipitation, MM = Missing Value Source: NWS Daily Summary

Daily Weather History Graph

Daily Weather History Graph

Search for Another Location

Airport or City:

Astronomy

Nov. 15, 2019 Rise Set
Actual Time 6:37 AM EST 4:24 PM EST
Civil Twilight 6:07 AM EST 4:55 PM EST
Nautical Twilight 5:33 AM EST 5:29 PM EST
Astronomical Twilight 5:00 AM EST 6:02 PM EST
Moon 6:55 PM EST 9:33 AM EST
Length of Visible Light 10h 47m
Length of Day
9h 46m
Waning Gibbous, 90% of the Moon is Illuminated
Nov 15
Waning Gibbous
Nov 19
Last Quarter
Nov 26
New
Dec 4
First Quarter
Dec 12
Full

Hourly Weather History & Observations

Time (EST) Temp. Windchill Dew Point Humidity Pressure Visibility Wind Dir Wind Speed Gust Speed Precip Events Conditions
12:52 AM 36.0 °F 31.1 °F 21.9 °F 57% 30.23 in 10.0 mi West 5.8 mph - N/A   Clear
1:52 AM 33.1 °F 30.0 °F 21.0 °F 61% 30.22 in 10.0 mi Variable 3.5 mph - N/A   Clear
2:52 AM 27.0 °F - 21.0 °F 78% 30.21 in 10.0 mi Calm Calm - N/A   Clear
3:52 AM 27.0 °F - 19.9 °F 75% 30.20 in 10.0 mi Calm Calm - N/A   Clear
4:52 AM 33.1 °F 28.7 °F 19.9 °F 59% 30.19 in 10.0 mi SW 4.6 mph - N/A   Clear
5:52 AM 33.1 °F 26.9 °F 19.0 °F 56% 30.19 in 10.0 mi SW 6.9 mph - N/A   Clear
6:52 AM 32.0 °F 26.4 °F 19.0 °F 59% 30.19 in 10.0 mi SW 5.8 mph - N/A   Clear
7:52 AM - - - N/A% 30.17 in - North - - N/A   Unknown
8:52 AM - - - N/A% 30.16 in - North - - N/A   Unknown
9:52 AM - - - N/A% 30.14 in - North - - N/A   Unknown
10:52 AM - - - N/A% 30.11 in - North - - N/A   Unknown
11:52 AM - - - N/A% 30.09 in - North - - N/A   Unknown
12:52 PM - - - N/A% 30.07 in - North - - N/A   Unknown
1:52 PM 48.0 °F - 19.9 °F 33% 30.06 in 10.0 mi WSW 13.8 mph 19.6 mph N/A   Clear
2:52 PM 48.9 °F - 21.0 °F 33% 30.06 in 10.0 mi SW 8.1 mph 20.7 mph N/A   Clear
3:52 PM 46.9 °F - 21.0 °F 36% 30.06 in 10.0 mi West 8.1 mph - N/A   Clear
4:52 PM 44.1 °F 42.5 °F 21.9 °F 42% 30.08 in 10.0 mi Variable 3.5 mph - N/A   Clear
5:52 PM 42.1 °F - 24.1 °F 49% 30.09 in 10.0 mi Calm Calm - N/A   Clear
6:52 PM 42.1 °F 37.1 °F 25.0 °F 51% 30.11 in 10.0 mi WNW 8.1 mph - N/A   Clear
7:52 PM 41.0 °F 32.5 °F 25.0 °F 53% 30.11 in 10.0 mi WNW 17.3 mph 26.5 mph N/A   Mostly Cloudy
8:52 PM 39.9 °F 33.4 °F 21.9 °F 49% 30.13 in 10.0 mi WNW 10.4 mph - N/A   Mostly Cloudy
9:52 PM 37.9 °F 34.4 °F 21.9 °F 53% 30.15 in 10.0 mi West 4.6 mph - N/A   Mostly Cloudy
10:52 PM 36.0 °F 32.1 °F 23.0 °F 59% 30.18 in 10.0 mi West 4.6 mph - N/A   Partly Cloudy
11:52 PM 37.0 °F 31.0 °F 23.0 °F 57% 30.20 in 10.0 mi NW 8.1 mph - N/A   Overcast